Previsão horária em Juradó

Hoje, 18 Junho, Sexta-feira

Tempo Temperatura Precipitação Vento Pressão Humidade
00:00 +27°C° 0.1 mm 1 m/s 758 mmHg 95%
01:00 +26°C° 0 mm 1 m/s 758 mmHg 95%
02:00 +26°C° 0.9 mm 1 m/s 758 mmHg 95%
03:00 +26°C° 0.9 mm 1 m/s 758 mmHg 95%
04:00 +26°C° 0.9 mm 1 m/s 758 mmHg 95%
05:00 +26°C° 0.9 mm 1 m/s 758 mmHg 94%
06:00 +27°C° 0.9 mm 1 m/s 758 mmHg 93%
07:00 +27°C° 0.9 mm 1 m/s 759 mmHg 93%
08:00 +28°C° 0.4 mm 1 m/s 759 mmHg 89%
09:00 +29°C° 0.4 mm 1 m/s 759 mmHg 85%
10:00 +30°C° 0.4 mm 1 m/s 759 mmHg 82%
11:00 +30°C° 1.4 mm 2 m/s 759 mmHg 83%
12:00 +29°C° 1.4 mm 2 m/s 758 mmHg 84%
13:00 +29°C° 1.4 mm 2 m/s 758 mmHg 84%
14:00 +29°C° 0.5 mm 3 m/s 758 mmHg 84%
15:00 +29°C° 0.5 mm 3 m/s 757 mmHg 83%
16:00 +29°C° 0.5 mm 3 m/s 757 mmHg 82%
17:00 +29°C° 0.1 mm 2 m/s 757 mmHg 85%
18:00 +28°C° 0.1 mm 2 m/s 757 mmHg 88%
19:00 +27°C° 0.1 mm 1 m/s 758 mmHg 91%
20:00 +27°C° 0 mm 1 m/s 758 mmHg 91%
21:00 +27°C° 0 mm 1 m/s 759 mmHg 92%
22:00 +27°C° 0 mm 1 m/s 759 mmHg 92%
23:00 +27°C° 0.7 mm 1 m/s 759 mmHg 92%

Amanhã, 19 Junho, Sábado

Tempo Temperatura Precipitação Vento Pressão Humidade
00:00 +27°C° 0.7 mm 1 m/s 759 mmHg 93%
01:00 +26°C° 0.7 mm 1 m/s 758 mmHg 94%
02:00 +26°C° 0.7 mm 1 m/s 758 mmHg 94%
03:00 +26°C° 0.7 mm 1 m/s 758 mmHg 94%
04:00 +24°C° 0.7 mm 0 m/s 758 mmHg 94%
05:00 +26°C° 0.2 mm 1 m/s 759 mmHg 93%
06:00 +27°C° 0.2 mm 1 m/s 759 mmHg 93%
07:00 +27°C° 0.2 mm 1 m/s 760 mmHg 92%
08:00 +28°C° 0.1 mm 1 m/s 760 mmHg 86%
09:00 +29°C° 0.1 mm 1 m/s 760 mmHg 80%
10:00 +31°C° 0.1 mm 1 m/s 760 mmHg 75%
11:00 +31°C° 0.6 mm 2 m/s 760 mmHg 76%
12:00 +31°C° 0.6 mm 2 m/s 759 mmHg 77%
13:00 +30°C° 0.6 mm 2 m/s 758 mmHg 78%
14:00 +30°C° 0.4 mm 2 m/s 758 mmHg 79%
15:00 +30°C° 0.4 mm 2 m/s 758 mmHg 81%
16:00 +29°C° 0.4 mm 2 m/s 758 mmHg 83%
17:00 +28°C° 0.1 mm 2 m/s 758 mmHg 85%
18:00 +28°C° 0.1 mm 2 m/s 758 mmHg 87%
19:00 +27°C° 0.1 mm 1 m/s 759 mmHg 90%
20:00 +27°C° 0 mm 1 m/s 759 mmHg 90%
21:00 +27°C° 0 mm 1 m/s 760 mmHg 90%
22:00 +27°C° 0 mm 1 m/s 760 mmHg 91%
23:00 +27°C° 0.4 mm 1 m/s 760 mmHg 92%

Depois de amanhã, 20 Junho, Domingo

Tempo Temperatura Precipitação Vento Pressão Humidade
00:00 +24°C° 0.4 mm 0 m/s 759 mmHg 93%
01:00 +24°C° 0.4 mm 0 m/s 759 mmHg 94%
02:00 +24°C° 0.8 mm 0 m/s 759 mmHg 94%
03:00 +24°C° 0.8 mm 0 m/s 759 mmHg 94%
04:00 +24°C° 0.8 mm 0 m/s 759 mmHg 94%
05:00 +26°C° 0.3 mm 1 m/s 759 mmHg 94%
06:00 +26°C° 0.3 mm 1 m/s 759 mmHg 94%
07:00 +26°C° 0.3 mm 1 m/s 760 mmHg 93%
08:00 +27°C° 0.3 mm 1 m/s 760 mmHg 89%
09:00 +29°C° 0.3 mm 1 m/s 760 mmHg 84%
10:00 +30°C° 0.3 mm 2 m/s 760 mmHg 80%
11:00 +29°C° 1 mm 2 m/s 760 mmHg 82%
12:00 +29°C° 1 mm 2 m/s 759 mmHg 84%
13:00 +29°C° 1 mm 2 m/s 759 mmHg 85%
14:00 +29°C° 0.7 mm 2 m/s 758 mmHg 87%
15:00 +28°C° 0.7 mm 2 m/s 758 mmHg 88%
16:00 +28°C° 0.7 mm 2 m/s 758 mmHg 89%
17:00 +28°C° 0.8 mm 2 m/s 758 mmHg 91%
18:00 +27°C° 0.8 mm 1 m/s 759 mmHg 93%
19:00 +27°C° 0.8 mm 1 m/s 759 mmHg 95%
20:00 +27°C° 1.6 mm 1 m/s 759 mmHg 96%
21:00 +26°C° 1.6 mm 1 m/s 760 mmHg 96%
22:00 +24°C° 1.6 mm 0 m/s 760 mmHg 96%
23:00 +24°C° 1.1 mm 0 m/s 760 mmHg 97%

21 Junho, Segunda-feira

Tempo Temperatura Precipitação Vento Pressão Humidade
00:00 +24°C° 1.1 mm 0 m/s 759 mmHg 97%
01:00 +26°C° 1.1 mm 1 m/s 759 mmHg 97%
02:00 +26°C° 1.6 mm 1 m/s 759 mmHg 97%
03:00 +26°C° 1.6 mm 1 m/s 759 mmHg 97%
04:00 +26°C° 1.6 mm 2 m/s 759 mmHg 97%
05:00 +26°C° 0.9 mm 2 m/s 759 mmHg 96%
06:00 +26°C° 0.9 mm 2 m/s 759 mmHg 96%
07:00 +26°C° 0.9 mm 2 m/s 759 mmHg 95%
08:00 +27°C° 0.4 mm 3 m/s 760 mmHg 93%
09:00 +27°C° 0.4 mm 3 m/s 760 mmHg 90%
10:00 +28°C° 0.4 mm 3 m/s 761 mmHg 88%
11:00 +28°C° 0.9 mm 3 m/s 760 mmHg 89%
12:00 +28°C° 0.9 mm 3 m/s 760 mmHg 89%
13:00 +28°C° 0.9 mm 3 m/s 760 mmHg 90%
14:00 +28°C° 0.9 mm 3 m/s 759 mmHg 90%
15:00 +28°C° 0.9 mm 3 m/s 759 mmHg 90%
16:00 +27°C° 0.9 mm 2 m/s 758 mmHg 90%
17:00 +27°C° 0.1 mm 2 m/s 759 mmHg 91%
18:00 +27°C° 0.1 mm 2 m/s 759 mmHg 91%
19:00 +27°C° 0.1 mm 1 m/s 759 mmHg 92%
20:00 +26°C° 0 mm 1 m/s 759 mmHg 91%
21:00 +26°C° 0 mm 1 m/s 760 mmHg 91%
22:00 +26°C° 0 mm 1 m/s 760 mmHg 91%
23:00 +26°C° 0 mm 1 m/s 760 mmHg 92%

22 Junho, Terça-feira

Tempo Temperatura Precipitação Vento Pressão Humidade
00:00 +26°C° 0 mm 1 m/s 760 mmHg 92%
01:00 +26°C° 0 mm 1 m/s 760 mmHg 93%
02:00 +26°C° 0.1 mm 1 m/s 759 mmHg 93%
03:00 +26°C° 0.1 mm 1 m/s 759 mmHg 92%
04:00 +26°C° 0.1 mm 1 m/s 759 mmHg 92%
05:00 +26°C° 0.1 mm 1 m/s 759 mmHg 92%
06:00 +27°C° 0.1 mm 1 m/s 760 mmHg 91%
07:00 +27°C° 0.1 mm 1 m/s 760 mmHg 91%
08:00 +28°C° 0.3 mm 1 m/s 760 mmHg 88%
09:00 +28°C° 0.3 mm 1 m/s 761 mmHg 85%
10:00 +29°C° 0.3 mm 1 m/s 761 mmHg 83%
11:00 +29°C° 0.7 mm 1 m/s 761 mmHg 82%
12:00 +29°C° 0.7 mm 1 m/s 760 mmHg 82%
13:00 +29°C° 0.7 mm 1 m/s 760 mmHg 81%
14:00 +30°C° 0.2 mm 1 m/s 759 mmHg 81%
15:00 +30°C° 0.2 mm 1 m/s 759 mmHg 80%
16:00 +30°C° 0.2 mm 1 m/s 758 mmHg 79%
17:00 +29°C° 0 mm 1 m/s 758 mmHg 83%
18:00 +28°C° 0 mm 1 m/s 759 mmHg 87%
19:00 +27°C° 0 mm 1 m/s 759 mmHg 90%
20:00 +27°C° 0 mm 1 m/s 760 mmHg 90%
21:00 +27°C° 0 mm 1 m/s 760 mmHg 91%
22:00 +25°C° 0 mm 0 m/s 760 mmHg 91%
23:00 +25°C° 0.4 mm 0 m/s 760 mmHg 91%

23 Junho, Quarta-feira

Tempo Temperatura Precipitação Vento Pressão Humidade
00:00 +25°C° 0.4 mm 0 m/s 760 mmHg 91%
01:00 +24°C° 0.4 mm 0 m/s 760 mmHg 91%
02:00 +24°C° 0.6 mm 0 m/s 760 mmHg 92%
03:00 +24°C° 0.6 mm 0 m/s 760 mmHg 93%
04:00 +24°C° 0.6 mm 0 m/s 759 mmHg 93%
05:00 +24°C° 0.4 mm 0 m/s 760 mmHg 93%
06:00 +24°C° 0.4 mm 0 m/s 760 mmHg 93%
07:00 +26°C° 0.4 mm 1 m/s 760 mmHg 93%
08:00 +26°C° 0.1 mm 1 m/s 760 mmHg 91%
09:00 +27°C° 0.1 mm 1 m/s 761 mmHg 90%
10:00 +27°C° 0.1 mm 1 m/s 761 mmHg 88%
11:00 +29°C° 0 mm 1 m/s 760 mmHg 82%
12:00 +30°C° 0 mm 1 m/s 760 mmHg 76%
13:00 +31°C° 0 mm 1 m/s 759 mmHg 70%
14:00 +31°C° 0 mm 1 m/s 759 mmHg 70%
15:00 +31°C° 0 mm 1 m/s 758 mmHg 71%
16:00 +31°C° 0 mm 2 m/s 757 mmHg 72%
17:00 +29°C° 0.1 mm 1 m/s 758 mmHg 77%
18:00 +28°C° 0.1 mm 1 m/s 758 mmHg 83%
19:00 +27°C° 0.1 mm 1 m/s 759 mmHg 89%
20:00 +27°C° 0.1 mm 1 m/s 759 mmHg 89%
21:00 +25°C° 0.1 mm 0 m/s 760 mmHg 89%
22:00 +25°C° 0.1 mm 0 m/s 760 mmHg 90%
23:00 +25°C° 0.2 mm 0 m/s 760 mmHg 91%
Mostrar mais

Necessitamos do seu Consentimento

A Meteoprog e os seus Fornecedores de Serviços podem armazenar e aceder a dados pessoais como cookies, identificadores do dispositivo ou outras tecnologias semelhantes existentes no seu dispositivo e processar estes dados para personalizar conteúdos e anúncios, assim como funcionalidades nas redes sociais e análise de tráfego.

  • Armazenar e/ou aceder a informações no seu dispositivo

    Os cookies, identificadores do dispositivo ou outras informações podem ser armazenados ou acedidos no seu dispositivo, para os fins acima indicados.

  • Anúncios e conteúdos personalizados, medição de anúncios e conteúdos, dados sobre o público-alvo e desenvolvimento de produtos

    Os anúncios e os conteúdos podem ser personalizados com base num perfil. Podem ser adicionados dados adicionais para uma maior personalização dos anúncios e dos conteúdos. A eficácia dos anúncios e dos conteúdos pode ser medida. Podem ser obtidas informações sobre o público que visualizou os anúncios e os conteúdos. Estes dados podem ser usados para desenvolver ou melhorar sistemas, softwares ou a experiência do utilizador.

Ao clicar em "Eu concordo”, permitirá o uso de cookies, identificadores do dispositivo e web beacons mencionados ou outras tecnologias semelhantes. As configurações do navegador do seu dispositivo podem ser alteradas.

Para certos fins, podem ser invocados interesses legítimos ao invés de consentimento. Pode ler mais informação sobre este assunto na nossa Política de Privacidade e Cookies.